Regional Weather Roundup
Issued by NWS New Orleans/Baton Rouge, LA

Home | Current Version | Previous Version | Text Only | Print | Product List | Glossary On
Versions: 1 2 3 4 5 6 7 8 9 10 11 12 13 14 15 16 17 18 19 20 21 22 23 24 25 26 27 28 29 30 31 32 33 34 35 36 37 38 39 40 41 42 43 44 45 46 47 48 49 50
000
ASUS44 KLIX 251710
RWRLIX
NEW ORLEANS REGIONAL WEATHER ROUNDUP
NATIONAL WEATHER SERVICE NEW ORLEANS LA
1100 AM CST THU DEC 25 2014

NOTE: "FAIR" INDICATES FEW OR NO CLOUDS BELOW 12,000 FEET WITH NO
      SIGNIFICANT WEATHER AND/OR OBSTRUCTIONS TO VISIBILITY.
      SKY/WX - SKY CONDITION AND SIGNIFICANT WEATHER.
      TMP - AIR TEMPERATURE.     DP    - DEWPOINT TEMPERATURE.
      RH  - RELATIVE HUMIDITY.   PRES  - PRESSURE.
      HI  - HEAT INDEX.          WCI   - WIND CHILL INDEX.

*  THESE STATIONS ARE NOT NWS OR FAA STATIONS AND ARE NOT UNDER
   NWS QUALITY CONTROL.

LAZ038-040-048-061>063-065>067-069-251800-
SOUTHEAST LOUISIANA

CITY           SKY/WX    TMP DP  RH WIND       PRES   REMARKS
N.O. AUDUBON     N/A     56  38  51 MISG        N/A
N.O. INTL ARPT MOSUNNY   54  36  50 VRB5      30.28F
N.O. LAKEFRONT SUNNY     54  37  52 NE5       30.28F
N.O. DOWNTOWN*   N/A     54  34  47 NE5       30.28F
SLIDELL        SUNNY     53  35  50 CALM      30.27F
BATON ROUGE    SUNNY     54  37  52 SE7       30.26F
BOOTHVILLE     SUNNY     53  39  59 NE6       30.28F
BELLE CHASSE   SUNNY     53  35  50 VRB5      30.27F
BOGALUSA*        N/A     52  36  54 CALM      30.30F
GALLIANO*      SUNNY     56  35  46 MISG      30.28S
NEW ROADS*       N/A     53  37  53 SE9       30.27R
GONZALES*        N/A     53  38  55 SE6       30.27F
HAMMOND*       NOT AVBL
HOUMA*         SUNNY     52  36  54 S5        30.28S
PORT FOURCHON* SUNNY     54  37  54 NE6       30.31S

$$

MSZ070-080>082-251800-
SOUTHERN MISSISSIPPI

CITY           SKY/WX    TMP DP  RH WIND       PRES   REMARKS
MCCOMB         SUNNY     50  36  58 S7        30.26R
GULFPORT       SUNNY     52  36  54 VRB6      30.27F
BILOXI         SUNNY     51  35  53 VRB3      30.27F
PASCAGOULA     SUNNY     51  35  54 CALM      30.27F
STENNIS ARPT*  SUNNY     52  32  46 VRB5      30.28F

$$

COASTAL OBSERVATIONS
LAKE AND NEARSHORE STATIONS

STATION/POSITION TIME  TEMP    WIND        PRES    WAVE
                       AIR SEA DIR/SP/G            HT/PER
                 (UTC) (F)     (DEG/KT/KT) (MB)    (FT/S)
PASCAGOULA       1700   52      CALM  /  3 1024.6
WAVELAND YACHT   1700   48      10/  3/  4 1024.5
GRAND ISLE       1700   51 58   70/  5/  8 1025.8
SOUTHWEST PASS   1700   53                 1025.4
NEW CANAL        1700   50 56   10/  3/  6 1025.7
SHELL BEACH      1700   49 56   10/  3/  4 1025.3

OFFSHORE STATIONS

STATION/POSITION TIME  TEMP    WIND        PRES    WAVE
                       AIR SEA DIR/SP/G            HT/PER
                 (UTC) (F)     (DEG/KT/KT) (MB)    (FT/S)
64 S DAUPHIN ISL 1700   53 73  330/  8/ 12 1024.4    3/ 8

$$



USA.gov is the U.S. government's official web portal to all federal, state and local government web resources and services.